Zurück zum Katalog

STARLINK-1422

AktivKommunikationVLEO
NORAD 45696·PAYLOAD·🇺🇸 United States

Gestartet Jun 4, 2020 von Cape Canaveral Space Force Station

Loading…

Nächste Überflüge (nächste 24 Stunden)

TLE

AktuellSource: CelesTrak SupGP

Epoche: Sep 15, 2026, 02:20 UTC

1 45696C 20035AR  26258.09770833  .00021956  00000+0  44819-3 0  2589
2 45696  53.1511 241.1677 0005868  44.3282 202.2306 15.45567213    11

Verfolge STARLINK-1422 in Echtzeit mit AllMySat

Download on the App Store